Weather in Gravataí

Brazil     29°56′48″S   50°57′49″W
temp.,
°C
wind,
m/s
gust,
m/s
humid.,
%
clouds,
%
prec.,
mm/h
press.,
hPa
HPBL,
m
25 october, mon
mon2500:00+15nne12660 0.0 101856
03:00+14n24730 0.0 101798
06:00+13nw25700 0.0 1018139
09:00+20nnw36430 0.0 1020554
12:00+26wnw35280 0.0 10181586
15:00+28wnw46260 0.0 10161769
18:00+25wsw25390 0.0 1016190
21:00+21ne11530 0.0 101812
26 october, tue
tue2600:00+19nnw11630 0.0 101922
03:00+17nw11720 0.0 101825
06:00+17nnw22740 0.0 102057
09:00+24nnw23490 0.0 1021421
12:00+31nne12280 0.0 10191272
15:00+32e22240 0.0 10171748
18:00+27ese37470 0.0 1017327
21:00+21ese24640 0.0 1019117
27 october, wed
wed2700:00+19ene12710 0.0 101941
03:00+19n117499 0.0 101926
06:00+18nw1173100 0.0 102012
09:00+25wnw114576 0.0 1022395
12:00+31ese34262 0.0 10211036
15:00+32e5723100 0.0 10201470
18:00+25ese41144100 0.0 1021424
21:00+21ese41268100 0.0 1022294
28 october, thu
thu2800:00+20e3107998 0.0 1022304
03:00+18e398853 0.0 1022268
06:00+18e279222 0.0 1023248
09:00+25ene35551 0.0 1024605
12:00+30e45280 0.0 10221533
15:00+29ese66335 0.0 1020990
18:00+23e714514 0.0 1020498
21:00+20e6135815 0.0 1022448
29 october, fri
fri2900:00+18e39640 0.0 1021317
03:00+17e26751 0.0 1021223
06:00+16e26790 0.0 1021177
09:00+23e23440 0.0 1021497
12:00+28e23315 0.0 10191315
15:00+28ese55392 0.0 10161217
18:00+22ese612664 0.0 1016529
21:00+20e5117699 0.0 1016385